Overview Statistics Trail Chart Weather Telemetry Raw packets
 

This is the latest recevied weather packets stored in our database for station/object EB1BWO-11. If no packets are shown the sender has not sent any weather packets the latest 10 day(s).

<< 23 24 25 26 27 28 29 >>
Time Temp. Humidity Pressure Rain* Wind** Luminosity Snow
1788008359 53.33° C 26% 1019.6 hPa - - - -
1788007459 53.33° C 25% 1019.6 hPa - - - -
1788006558 54.44° C 23% 1019.6 hPa - - - -
1788005658 53.33° C 26% 1019.6 hPa - - - -
1788004757 51.11° C 22% 1019.7 hPa - - - -
1788003857 50.56° C 23% 1019.8 hPa - - - -
1788002956 47.78° C 28% 1019.9 hPa - - - -
1788002055 44.44° C 27% 1020 hPa - - - -
1788001155 42.78° C 35% 1020.1 hPa - - - -
1788000254 41.67° C 30% 1020.2 hPa - - - -
1787999354 43.33° C 32% 1020.3 hPa - - - -
1787998454 38.33° C 38% 1020.4 hPa - - - -
1787997553 34.44° C 43% 1020.6 hPa - - - -
1787996704 32.78° C 47% 1020.5 hPa - - - -
1787995752 32.78° C 46% 1020.5 hPa - - - -
1787994851 30.56° C 49% 1020.5 hPa - - - -
1787993950 28.89° C 53% 1020.4 hPa - - - -
1787993049 28.33° C 54% 1020.2 hPa - - - -
1787992201 26.11° C 56% 1020.1 hPa - - - -
1787991248 25° C 58% 1020.2 hPa - - - -
1787990353 24.44° C 60% 1020.1 hPa - - - -
1787989447 23.33° C 61% 1020 hPa - - - -
1787988546 22.22° C 62% 1020 hPa - - - -
1787987645 21.67° C 62% 1019.9 hPa - - - -
1787986744 21.11° C 63% 1020.1 hPa - - - -

* Rain since midnight (hover to see other rain measurements)
** Current wind speed in m/s (hover to see current wind gust speed)